MMS 1

Last updated on Wed May 14 2025 00:02:36 GMT+0000 (Coordinated Universal Time)

1 40482U 15011A 25133.58334491 -.00000252 00000+0 00000+0 0 9995 2 40482 63.5890 356.1563 8750570 158.6808 140.0370 0.28499262 1365
UTC large
Height (km)
Speed (km/s)
/
Latitude / Longitude
Inclination (degrees)
Orbital Period (minutes)
Azimuth
Elevation
Range (km)
Doppler Factor

Next 0 passes for location: London (51.5072 / 0.1276)

Sorry there are no passes over London.